Flag for Zimbabwe Weather past 2 weeks in Harare, Zimbabwe

Now
72 °F

Sunny.


Feels Like: 77 °F
Forecast: 49 / 76 °F
Wind: 1 mph from North

Location: Harare Kutsaga Airport

Current Time: May 26, 2015 at 6:16:03 PM

Latest Report: May 26, 2015 at 5:00 PM


Visibility: 10 mi

Pressure: 30.21 "Hg

Humidity: 38%

Dew point: 45 °F

Location of HarareLocation

Historic Weather in Harare — Graph

°F

Harare temperature yesterday

Maximum temperature yesterday: 75 °F (at 3:00 PM)
Minimum temperature yesterday: 48 °F (at 5:00 AM)
Average temperature yesterday: 61 °F

Past Weeks' High & Low Weather Summary

 TemperatureHumidityPressure
High79 °F (May 20, 1:00 PM)100% (May 12, 5:00 AM)30.42 "Hg (May 12, 5:00 AM)
Low45 °F (May 17, 5:00 AM)16% (May 20, 1:00 PM)30.18 "Hg (May 14, 4:00 PM)
Average62 °F61%30.31 "Hg
* Reported May 11 5:00 PM — May 26 5:00 PM, Harare, Weather by CustomWeather, © 2015

Note: Actual official high and low records may vary slightly from our data, if they occured in-between our weather recording intervals... More about our weather records

Advertising

Harare weather history for previous 24 hours

 ConditionsComfort  
Time TempWeatherWind HumidityBarometerVisibility
5:00 PM
Tue, May 26
72 °FSunny.1 mph38%30.21 "Hg10 mi
4:00 PM73 °FSunny.2 mph33%30.18 "Hg10 mi
3:00 PM75 °FSunny.5 mph31%30.18 "Hg10 mi
2:00 PM75 °FSunny.3 mph31%30.18 "Hg10 mi
1:00 PM75 °FSunny.1 mph34%30.21 "Hg10 mi
11:00 AM72 °FSunny.6 mph36%30.27 "Hg10 mi
10:00 AM70 °FSunny.5 mph46%30.27 "Hg10 mi
9:00 AM66 °FPassing clouds.7 mph56%30.30 "HgN/A
8:00 AM61 °FHaze.7 mph72%30.27 "Hg5 mi
7:00 AM50 °FSunny.6 mph100%30.27 "Hg10 mi
6:00 AM46 °FClear.6 mph100%30.24 "Hg10 mi
5:00 AM46 °FClear.5 mph100%30.21 "Hg10 mi
3:00 AM46 °FClear.5 mph100%30.21 "Hg10 mi
2:00 AM50 °FClear.2 mph100%30.21 "Hg10 mi
1:00 AM52 °FPassing clouds.5 mph88%30.24 "HgN/A
12:00 AM52 °FClear.6 mph88%30.24 "Hg10 mi
11:00 PM
Mon, May 25
54 °FPassing clouds.6 mph82%30.24 "HgN/A
10:00 PM54 °FClear.5 mph82%30.27 "Hg10 mi
9:00 PM55 °FClear.2 mph77%30.27 "Hg10 mi
8:00 PM57 °FClear.6 mph67%30.24 "Hg10 mi
7:00 PM55 °FClear.No wind72%30.24 "Hg10 mi
6:00 PM63 °FClear.3 mph56%30.21 "Hg10 mi
Weather by CustomWeather, © 2015

See weather overviewHow to use our weather pages